Regional Weather Roundup
Issued by NWS Jackson, KY

Home | Current Version | Previous Version | Text Only | Print | Product List | Glossary On
Versions: 1 2 3 4 5 6 7 8 9 10 11 12 13 14 15 16 17 18 19 20 21 22 23 24 25 26 27 28 29 30 31 32 33 34 35 36 37 38 39 40 41 42 43 44 45 46 47 48 49 50
000
ASUS43 KJKL 051510
RWRJKL

EAST KENTUCKY HOURLY WEATHER ROUNDUP
NATIONAL WEATHER SERVICE JACKSON KY
1100 AM EDT SAT SEP 05 2015

NOTE: "FAIR" INDICATES FEW OR NO CLOUDS BELOW 12,000 FEET WITH
NO SIGNIFICANT WEATHER AND/OR OBSTRUCTIONS TO VISIBILITY.

* THESE REPORTS ARE NOT UNDER NWS QUALITY CONTROL AND MAY NOT
  REPORT WEATHER SUCH AS PRECIPITATION AND FOG.

KYZ079-080-083-085-087-088-110-112-115-119-120-051600
...EASTERN KENTUCKY...

CITY           SKY/WX    TMP DP  RH WIND       PRES   REMARKS
JACKSON        SUNNY     77  67  71 CALM      30.19R
LONDON         SUNNY     82  64  54 VRB3      30.18R
SOMERSET*      SUNNY     81  66  61 CALM      30.17S
MONTICELLO*    SUNNY     82  70  67 CALM      30.18S
WILLIAMSBURG*  SUNNY     79  66  65 SE5       30.17
MIDDLESBORO*   SUNNY     79  64  60 CALM      30.18S
HARLAN APT*      N/A     79  63  57 MISG      30.20S
HAZARD APT*    SUNNY     79  68  69 CALM      30.18
BLACK MTN*       N/A     72  63  73 CALM        N/A
PIKEVILLE APT* SUNNY     77  66  69 SE7       30.21R
BIG SANDY*     SUNNY     80  67  65 SE7       30.19S
MOREHEAD APT*  SUNNY     81  66  61 CALM      30.19S
$$

KYZ035-036-041-042-044-050-067-078-099-051600
...CENTRAL KENTUCKY...

CITY           SKY/WX    TMP DP  RH WIND       PRES   REMARKS
MT STERLING*   SUNNY    N/A N/A N/A CALM      30.18S
FLEMING/MASON* SUNNY     81  68  65 E5        30.19R
DANVILLE*      SUNNY     81  68  65 CALM      30.17S
RICHMOND*      SUNNY     81  68  65 E3        30.16R
LEXINGTON      SUNNY     84  66  54 E5        30.16R
FRANKFORT      SUNNY     81  66  60 CALM      30.15R
$$

KYZ091>093-OHZ055-061-077-WVZ005-015-034-035-042-051600
...SOUTHERN OHIO/WEST VIRGINIA...

CITY           SKY/WX    TMP DP  RH WIND       PRES   REMARKS
COVINGTON      PTSUNNY   80  64  58 CALM      30.17R
COLUMBUS       MOSUNNY   79  65  62 CALM      30.19R
DAYTON         MOSUNNY   80  63  55 E3        30.20R
WILMINGTON     SUNNY     79  65  62 E3        30.18S
HUNTINGTON     SUNNY     79  67  66 VRB3      30.18R
CHARLESTON     MOSUNNY   81  66  60 VRB6      30.19S
PINEVILLE*     MOSUNNY   75  68  79 MISG      30.30R
BECKLEY        MOSUNNY   71  64  78 SE7       30.28R
BLUEFIELD      CLOUDY    71  61  70 SE8       30.31R
$$

VAZ002-007-008-TNZ017-027-036-066-071-051600
...SOUTHWEST VIRGINIA/EAST TENNESSEE...

CITY           SKY/WX    TMP DP  RH WIND       PRES   REMARKS
WISE*          SUNNY     77  61  57 E5        30.28R
JONESVILLE*    SUNNY     79  64  61 NE8       30.22S
ABINGDON*      SUNNY     79  63  58 SE9       30.24S
BRISTOL        MOSUNNY   79  64  60 E6        30.21S
KNOXVILLE      SUNNY     79  63  57 E3        30.15S
OAK RIDGE      SUNNY     81  66  60 VRB5      30.17R
CROSSVILLE     SUNNY     80  66  62 VRB6      30.20R
NASHVILLE      SUNNY     85  67  54 E5        30.12R
$$

...KEY TO REMARKS...
VSB - VISIBILITY IN MILES
WCI - WIND CHILL INDEX
HX  - HEAT INDEX

$$


USA.gov is the U.S. government's official web portal to all federal, state and local government web resources and services.